Location: Eckley Miners' Village
(40.9930°N, 75.8630°W)
Time: 10:56:17
(UTC-04:00)

Vanguard 1 Rocket - Pass Details

Date: 09 March 2026
Orbit: 654 x 4213 km, 34.3° (Epoch: 11 April)

Event Time Altitude Azimuth Distance (km) Brightness Sun altitude
Rises 16:07:07 0° 263° (W) 4,151 11.6 29.9°
Reaches altitude 10° 16:10:40 10° 244° (WSW) 3,629 12.0 29.4°
Maximum altitude 16:16:42 18° 205° (SSW) 3,758 11.8 28.5°
Drops below altitude 10° 16:25:17 10° 169° (S) 5,410 11.7 27.2°
Sets 16:32:47 0° 155° (SSE) 7,176 12.1 26.0°
